Location: Bakhuizen
(52.8696°N, 5.4575°E)
Time: 07:17:12
(UTC+00:00)

Cosmos 372 Rocket - Pass Details

Date: 11 May 2021
Orbit: 738 x 768 km, 74.1° (Epoch: 20 June)

Event Time Altitude Azimuth Distance (km) Brightness Sun altitude
Exits shadow 23:06:58 34° 195° (SSW) 1,195 4.5 -18.7°
Maximum altitude 23:09:11 80° 113° (ESE) 757 3.8 -18.8°
Drops below altitude 10° 23:14:17 10° 28° (NNE) 2,259 7.3 -18.9°
Sets 23:16:39 0° 27° (NNE) 3,189 8.2 -18.9°
